Regional Weather Roundup
Issued by NWS

Home | Current Version | Previous Version | Graphics & Text | Print | Product List | Glossary On
Versions: 1 2 3 4 5 6 7 8 9 10 11 12 13 14 15 16 17 18 19 20 21 22 23 24 25 26 27 28 29 30 31 32 33 34 35 36 37 38 39 40 41 42 43 44 45 46 47 48 49 50
000
ASUS43 KFSD 032310
RWRSD

WEATHER ROUNDUP FOR SOUTH DAKOTA
NATIONAL WEATHER SERVICE SIOUX FALLS SD
500 PM CST TUE MAR 03 2015

NOTE: "FAIR" INDICATES FEW OR NO CLOUDS BELOW 12,000 FEET WITH NO
SIGNIFICANT WEATHER AND/OR OBSTRUCTIONS TO VISIBILITY.


SDZ001>005-009-010-012>017-040000-
NORTHWEST AND NORTH CENTRAL SOUTH DAKOTA

CITY           SKY/WX    TMP DP  RH WIND       PRES   REMARKS
BUFFALO          N/A     16  -4  41 NW28G37   29.88F WCI  -4
FAITH            N/A     15  -2  46 W23G29    29.97S WCI  -3
MOBRIDGE       MOSUNNY   19  -2  39 NW23G32   29.96S WCI   2
$$

SDZ012>016-024>037-041>051-057-063-072>074-040000-
SOUTHWEST AND SOUTH CENTRAL SOUTH DAKOTA

CITY           SKY/WX    TMP DP  RH WIND       PRES   REMARKS
RAPID CTY ARPT PTSUNNY   15   3  59 N25G32    29.94S WCI  -4
PIERRE         SUNNY     21   3  45 NW20G26   30.00S WCI   6
CUSTER         CLOUDY    12   5  73 E3        29.77S
ELLSWORTH AFB  PTSUNNY   16   1  53 N24G32    29.93S WCI  -3
PHILIP         PTSUNNY   19   2  47 NW13      30.01F WCI   6
PINE RIDGE     CLOUDY    17   4  56 NE8       29.96S WCI   7
SPEARFISH      FAIR      12   0  57 MISG      29.93S
WINNER         FAIR      20   3  48 NW15      30.02S WCI   6
$$

SDZ004>011-016>023-039-040-040000-
NORTHEAST SOUTH DAKOTA

CITY           SKY/WX    TMP DP  RH WIND       PRES   REMARKS
ABERDEEN       MOSUNNY   15   1  53 NW20G31   30.00S WCI  -2
WATERTOWN      PTSUNNY   11   2  67 NW24G31   29.93R WCI  -9
$$

SDZ017-020-022-023-036>040-048>070-040000-
SOUTHEAST SOUTH DAKOTA

CITY           SKY/WX    TMP DP  RH WIND       PRES   REMARKS
SIOUX FALLS    PTSUNNY   15   6  67 N20G30    29.99R BLWGSNOWWCI  -2
HURON          SUNNY     16   4  59 NW17      30.03R WCI   0
CHAMBERLAIN    SUNNY     19   3  51 NW16      30.02S WCI   4
MITCHELL         N/A     18   5  57 NW24G30   30.04R WCI   0
YANKTON        SUNNY     19   3  49 NW23G29   30.03S WCI   2
$$

ABBREVIATIONS USED IN REMARKS
   TC - TEMPERATURE IN CELSIUS
  WCI - WIND CHILL INDEX
   HX - HEAT INDEX
  VSB - VISIBILITY




USA.gov is the U.S. government's official web portal to all federal, state and local government web resources and services.